| time (UTC) | temp F | wind direction | speed knots | gust knots | rain 1hr in | rain 24hr in | rain mn in | humidity % | barometer mb |
| 20260505220020 | 64 | 179 | 0.9 | 8.7 | 0.01 | 0.04 | 0.04 | 76 | 1005.5 |
| 20260505214523 | 64 | 163 | 0.9 | 3.5 | 0.01 | 0.04 | 0.04 | 82 | 1005.6 |
| 20260505213018 | 64 | 180 | 0.9 | 4.3 | 0.01 | 0.04 | 0.04 | 84 | 1005.3 |
| 20260505211518 | 64 | 199 | 0.0 | 2.6 | 0.01 | 0.04 | 0.04 | 84 | 1004.8 |
| 20260505210020 | 64 | 16 | 0.0 | 0.9 | 0.01 | 0.03 | 0.03 | 84 | 1004.1 |
| 20260505204524 | 63 | 16 | 0.9 | 4.3 | 0.03 | 0.03 | 0.03 | 83 | 1003.8 |
| 20260505203017 | 63 | 67 | 1.7 | 3.5 | 0.03 | 0.03 | 0.03 | 83 | 1005.1 |
| 20260505201517 | 64 | 178 | 0.0 | 5.2 | 0.03 | 0.03 | 0.03 | 76 | 1005.0 |
| 20260505200023 | 68 | 204 | 2.6 | 13.0 | 0.02 | 0.02 | 0.02 | 69 | 1004.6 |
| 20260505194514 | 76 | 233 | 1.7 | 16.5 | 0.00 | 0.00 | 0.00 | 44 | 1002.5 |
| 20260505193013 | 77 | 196 | 7.0 | 20.0 | 0.00 | 0.00 | 0.00 | 38 | 1001.9 |
| 20260505191513 | 77 | 109 | 3.5 | 8.7 | 0.00 | 0.00 | 0.00 | 39 | 1001.7 |
| 20260505190013 | 78 | 142 | 4.3 | 11.3 | 0.00 | 0.00 | 0.00 | 39 | 1001.6 |
| 20260505184521 | 78 | 159 | 4.3 | 17.4 | 0.00 | 0.00 | 0.00 | 38 | 1001.8 |
| 20260505183031 | 80 | 119 | 3.5 | 9.6 | 0.00 | 0.00 | 0.00 | 39 | 1002.0 |
| 20260505181508 | 80 | 184 | 3.5 | 12.2 | 0.00 | 0.00 | 0.00 | 38 | 1002.3 |
| 20260505180006 | 79 | 146 | 3.5 | 11.3 | 0.00 | 0.00 | 0.00 | 39 | 1002.3 |
| 20260505174504 | 79 | 169 | 7.0 | 20.9 | 0.00 | 0.00 | 0.00 | 39 | 1002.7 |
| 20260505173004 | 78 | 196 | 4.3 | 13.9 | 0.00 | 0.00 | 0.00 | 40 | 1002.9 |
| 20260505171600 | 78 | 230 | 4.3 | 17.4 | 0.00 | 0.00 | 0.00 | 40 | 1003.0 |
| 20260505170101 | 77 | 130 | 3.5 | 14.8 | 0.00 | 0.00 | 0.00 | 41 | 1003.4 |
| 20260505164618 | 77 | 188 | 2.6 | 11.3 | 0.00 | 0.00 | 0.00 | 42 | 1003.8 |
| 20260505163053 | 77 | 95 | 2.6 | 9.6 | 0.00 | 0.00 | 0.00 | 44 | 1003.8 |
| 20260505161553 | 76 | 117 | 3.5 | 12.2 | 0.00 | 0.00 | 0.00 | 46 | 1004.1 |
| 20260505153045 | 70 | 82 | 1.7 | 11.3 | 0.00 | 0.00 | 0.00 | 52 | 1004.5 |
| 20260505151536 | 69 | 123 | 2.6 | 10.4 | 0.00 | 0.00 | 0.00 | 55 | 1005.0 |
| 20260505124521 | 65 | 80 | 0.9 | 3.5 | 0.00 | 0.00 | 0.00 | 61 | 1006.0 |
| 20260505123017 | 64 | 126 | 0.0 | 2.6 | 0.00 | 0.00 | 0.00 | 61 | 1005.9 |
| 20260505121513 | 63 | 72 | 2.6 | 6.1 | 0.00 | 0.00 | 0.00 | 63 | 1005.9 |
| 20260505120009 | 59 | 134 | 0.9 | 3.5 | 0.00 | 0.00 | 0.00 | 72 | 1006.1 |
| 20260505114506 | 54 | 180 | 0.0 | 0.9 | 0.00 | 0.00 | 0.00 | 82 | 1006.1 |
| 20260505113059 | 52 | 149 | 0.0 | 0.9 | 0.00 | 0.00 | 0.00 | 87 | 1006.0 |
| 20260505111556 | 51 | 150 | 0.0 | 0.0 | 0.00 | 0.00 | 0.00 | 88 | 1006.2 |
| 20260505110104 | 50 | 150 | 0.0 | 0.0 | 0.00 | 0.00 | 0.00 | 87 | 1006.4 |
| 20260505101546 | 48 | 140 | 0.0 | 0.0 | 0.00 | 0.00 | 0.00 | 88 | 1005.8 |
| 20260505100047 | 47 | 140 | 0.0 | 0.9 | 0.00 | 0.00 | 0.00 | 88 | 1005.7 |
| 20260505094543 | 47 | 140 | 0.0 | 0.0 | 0.00 | 0.00 | 0.00 | 88 | 1005.7 |
| 20260505093041 | 46 | 213 | 0.0 | 0.9 | 0.00 | 0.00 | 0.00 | 88 | 1005.9 |
| 20260505091540 | 46 | 214 | 0.0 | 1.7 | 0.00 | 0.00 | 0.00 | 88 | 1005.8 |
| 20260505090041 | 45 | 209 | 0.0 | 2.6 | 0.00 | 0.00 | 0.00 | 88 | 1005.9 |
| 20260505084546 | 45 | 233 | 0.0 | 1.7 | 0.00 | 0.00 | 0.00 | 88 | 1006.0 |
| 20260505083038 | 44 | 287 | 0.0 | 1.7 | 0.00 | 0.00 | 0.00 | 88 | 1006.0 |
| 20260505081538 | 44 | 287 | 0.0 | 0.9 | 0.00 | 0.00 | 0.00 | 88 | 1006.1 |
| 20260505080038 | 44 | 287 | 0.0 | 1.7 | 0.00 | 0.00 | 0.00 | 87 | 1005.8 |
| 20260505074538 | 44 | 282 | 0.9 | 2.6 | 0.00 | 0.00 | 0.00 | 87 | 1006.0 |
| 20260505073042 | 44 | 288 | 0.0 | 1.7 | 0.00 | 0.00 | 0.00 | 87 | 1005.9 |
| 20260505071534 | 44 | 288 | 0.0 | 1.7 | 0.00 | 0.00 | 0.00 | 88 | 1006.1 |
| 20260505070040 | 44 | 295 | 0.0 | 3.5 | 0.00 | 0.00 | 0.00 | 88 | 1006.2 |
| 20260505064533 | 43 | 348 | 0.0 | 1.7 | 0.00 | 0.00 | 0.00 | 87 | 1006.2 |
| 20260505063030 | 43 | 35 | 0.0 | 2.6 | 0.00 | 0.00 | 0.00 | 87 | 1006.2 |
| 20260505061537 | 43 | 275 | 0.0 | 1.7 | 0.00 | 0.00 | 0.00 | 87 | 1006.2 |
| 20260505060027 | 43 | 250 | 0.0 | 2.6 | 0.00 | 0.00 | 0.00 | 86 | 1006.3 |
| 20260505054533 | 44 | 194 | 0.0 | 1.7 | 0.00 | 0.00 | 0.00 | 85 | 1006.3 |
| 20260505053022 | 44 | 188 | 0.0 | 0.9 | 0.00 | 0.00 | 0.00 | 85 | 1006.3 |
| 20260505051524 | 44 | 188 | 0.0 | 0.0 | 0.00 | 0.00 | 0.00 | 84 | 1006.5 |
| 20260505041526 | 46 | 188 | 0.0 | 0.9 | 0.00 | 0.00 | 0.00 | 80 | 1006.3 |
| 20260505040010 | 47 | 188 | 0.0 | 0.9 | 0.00 | 0.00 | 0.00 | 79 | 1006.2 |
| 20260505034519 | 48 | 188 | 0.0 | 0.9 | 0.00 | 0.00 | 0.00 | 78 | 1006.2 |
| 20260505033010 | 49 | 188 | 0.0 | 0.0 | 0.00 | 0.00 | 0.00 | 76 | 1006.2 |
| 20260505031523 | 50 | 188 | 0.0 | 0.0 | 0.00 | 0.00 | 0.00 | 74 | 1006.1 |
| 20260505030009 | 50 | 188 | 0.0 | 0.0 | 0.00 | 0.00 | 0.00 | 72 | 1006.1 |
| 20260505024509 | 52 | 188 | 0.0 | 0.0 | 0.00 | 0.00 | 0.00 | 71 | 1006.4 |
| 20260505023010 | 53 | 188 | 0.0 | 0.0 | 0.00 | 0.00 | 0.00 | 69 | 1006.4 |
| 20260505021509 | 54 | 188 | 0.0 | 0.0 | 0.00 | 0.00 | 0.00 | 67 | 1006.3 |
| 20260505020007 | 55 | 188 | 0.0 | 0.0 | 0.00 | 0.00 | 0.00 | 66 | 1006.2 |
| 20260505014507 | 56 | 188 | 0.0 | 0.0 | 0.00 | 0.00 | 0.00 | 64 | 1006.1 |
| 20260505013006 | 58 | 188 | 0.0 | 0.9 | 0.00 | 0.00 | 0.00 | 61 | 1006.1 |
| 20260505011505 | 59 | 188 | 0.0 | 0.0 | 0.00 | 0.00 | 0.00 | 57 | 1006.0 |
| 20260505010005 | 61 | 188 | 0.0 | 0.0 | 0.00 | 0.00 | 0.00 | 55 | 1005.9 |
| 20260505004505 | 62 | 188 | 0.0 | 0.0 | 0.00 | 0.00 | 0.00 | 51 | 1005.9 |
| 20260505003004 | 63 | 188 | 0.0 | 0.9 | 0.00 | 0.00 | 0.00 | 47 | 1005.8 |
| 20260505001504 | 64 | 188 | 0.0 | 0.0 | 0.00 | 0.00 | 0.00 | 45 | 1005.6 |
| 20260505000006 | 65 | 188 | 0.0 | 0.9 | 0.00 | 0.00 | 0.00 | 43 | 1005.5 |
| 20260504234503 | 66 | 186 | 0.0 | 1.7 | 0.00 | 0.00 | 0.00 | 43 | 1005.3 |
| 20260504233002 | 67 | 190 | 0.0 | 3.5 | 0.00 | 0.00 | 0.00 | 41 | 1005.2 |
| 20260504231502 | 67 | 188 | 0.0 | 7.0 | 0.00 | 0.00 | 0.00 | 40 | 1004.9 |
| 20260504230002 | 68 | 180 | 2.6 | 11.3 | 0.00 | 0.00 | 0.00 | 37 | 1004.7 |
| 20260504224501 | 68 | 190 | 3.5 | 9.6 | 0.00 | 0.00 | 0.00 | 36 | 1004.6 |
| 20260504223134 | 68 | 176 | 0.9 | 10.4 | 0.00 | 0.00 | 0.00 | 37 | 1004.5 |
| 20260504221559 | 68 | 200 | 0.9 | 8.7 | 0.00 | 0.00 | 0.00 | 36 | 1004.5 |